Home > Weather > Delémont > Past weeks

Flag for Switzerland Weather for the Past 2 Weeks in Delémont, Jura, Switzerland

Now
39 °F

Chilly.


Feels Like: 34 °F
Forecast: 40 / 46 °F
Wind: 6 mph from Southwest

Location: Grenchen

Current Time: Feb 13, 2016 at 11:09:52 AM

Latest Report: Feb 13, 2016 at 10:00 AM


Visibility: N/A

Pressure: 29.38 "Hg

Humidity: 91%

Dew point: 36 °F

Location of DelémontLocation

Historic Weather in Delémont — Graph

°F

Delémont Temperature Yesterday

Maximum temperature yesterday: 39 °F (at 2:00 PM)
Minimum temperature yesterday: 32 °F (at 5:00 PM)
Average temperature yesterday: 35 °F

High & Low Weather Summary for the Past Weeks

 TemperatureHumidityPressure
High57 °F (Feb 1, 1:00 PM)100% (Jan 30, 7:00 AM)30.56 "Hg (Jan 30, 7:00 AM)
Low26 °F (Jan 30, 6:00 AM)49% (Jan 30, 3:00 PM)29.38 "Hg (Feb 9, 6:00 PM)
Average41 °F88%30.07 "Hg
* Reported Jan 29 9:00 AM — Feb 13 9:00 AM, Delémont, Weather by CustomWeather, © 2016

Note: Actual official high and low records may vary slightly from our data, if they occured in-between our weather recording intervals... More about our weather records

Advertising

Delémont Weather History for the Previous 24 Hours

 ConditionsComfort  
Time TempWeatherWind HumidityBarometerVisibility
9:00 AM
Sat, Feb 13
37 °FChilly.5 mph96%29.41 "HgN/A
8:00 AM38 °FChilly.6 mph98%29.44 "HgN/A
7:00 AM37 °FChilly.10 mph97%29.44 "HgN/A
6:00 AM36 °FChilly.6 mph100%29.47 "HgN/A
5:00 AM36 °FChilly.6 mph99%29.47 "HgN/A
9:00 PM
Fri, Feb 12
33 °FChilly.2 mph100%29.44 "HgN/A
8:00 PM33 °FChilly.1 mph100%29.44 "HgN/A
7:00 PM32 °FChilly.2 mph99%29.44 "HgN/A
6:00 PM32 °FChilly.3 mph99%29.44 "HgN/A
5:00 PM32 °FChilly.1 mph99%29.44 "HgN/A
4:00 PM33 °FChilly.1 mph99%29.44 "HgN/A
3:00 PM37 °FChilly.2 mph87%29.44 "HgN/A
2:00 PM39 °FChilly.7 mph77%29.44 "HgN/A
1:00 PM39 °FChilly.5 mph76%29.50 "HgN/A
12:00 PM38 °FChilly.2 mph80%29.57 "HgN/A
11:00 AM37 °FChilly.5 mph90%29.60 "HgN/A
Weather by CustomWeather, © 2016

See weather overviewHow to use our weather pages